Back to catalog

COSMOS 1382 DEB

AliveHEO
NORAD 27905·DEBRIS·🇷🇺 Russia

Launched Jun 25, 1982 from Plesetsk Cosmodrome

Loading…

Next Passes (next 24 hours)

TLE

FreshSource: Space-Track

Epoch: Sep 13, 2026, 17:46 UTC

1 27905U 82064G   26256.74078744 -.00000125  00000-0  00000-0 0  9994
2 27905  62.1758 156.4731 7265810  40.4150 357.6426  2.00090814186657

Track COSMOS 1382 DEB in real time with AllMySat

Download on the App Store